This is the latest recevied weather packets stored in our database for station/object R1ZAAG-14. If no packets are shown the sender has not sent any weather packets the latest 10 day(s).
| Time | Temp. | Humidity | Pressure | Rain* | Wind** | Luminosity | Snow |
|---|---|---|---|---|---|---|---|
| 1778018182 | 1.67° C | 98% | 1000.3 hPa | - | - | - | - |
| 1778017281 | 1.67° C | 98% | 1000.2 hPa | - | - | - | - |
| 1778016380 | 1.67° C | 100% | 1000.1 hPa | - | - | - | - |
| 1778015479 | 1.11° C | 100% | 1000.1 hPa | - | - | - | - |
| 1778014578 | 1.11° C | 100% | 999.9 hPa | - | - | - | - |
| 1778013678 | 1.67° C | 100% | 999.9 hPa | - | - | - | - |
| 1778012777 | 1.11° C | 100% | 999.9 hPa | - | - | - | - |
| 1778011877 | 1.11° C | 100% | 999.8 hPa | - | - | - | - |
| 1778010976 | 1.11° C | 100% | 999.8 hPa | - | - | - | - |
| 1778010075 | 1.67° C | 88% | 999.7 hPa | - | - | - | - |
| 1778009175 | 1.67° C | 70% | 999.6 hPa | - | - | - | - |
| 1778008274 | 1.67° C | 72% | 999.6 hPa | - | - | - | - |
| 1778007373 | 1.67° C | 72% | 999.5 hPa | - | - | - | - |
| 1778005573 | 1.67° C | 76% | 999.2 hPa | - | - | - | - |
| 1778004673 | 1.67° C | 76% | 999.2 hPa | - | - | - | - |
| 1778003773 | 1.67° C | 79% | 999 hPa | - | - | - | - |
| 1778002872 | 1.67° C | 83% | 998.9 hPa | - | - | - | - |
| 1778001971 | 2.22° C | 80% | 998.9 hPa | - | - | - | - |
| 1778001071 | 2.78° C | 72% | 998.8 hPa | - | - | - | - |
| 1778000179 | 2.78° C | 75% | 998.6 hPa | - | - | - | - |
| 1778000170 | 2.78° C | 75% | 998.6 hPa | - | - | - | - |
| 1777999278 | 3.33° C | 72% | 998.5 hPa | - | - | - | - |
| 1777999268 | 3.33° C | 72% | 998.5 hPa | - | - | - | - |
| 1777998396 | 3.33° C | 70% | 998.5 hPa | - | - | - | - |
| 1777998387 | 3.33° C | 70% | 998.5 hPa | - | - | - | - |
* Rain since midnight (hover to see other rain measurements)
** Current wind speed in m/s (hover to see current wind gust speed)